Home   Weather   Molde   Past weeks
Flag for Norway

Past Weather in Molde, Norway — Yesterday and Last 2 Weeks

Now
61 °F

Partly sunny.


Feels Like: 61 °F
Forecast: 55 / 49 °F
Wind: 15 mph from West

Location: Aro

Current Time: Aug 20, 2019 at 3:56:34 pm

Latest Report: Aug 20, 2019 at 3:20 pm


Visibility: N/A

Pressure: 29.77 "Hg

Humidity: 68%

Dew Point: 50 °F

Location of MoldeLocation

Past Weather in Molde — Graph

°F

Molde Temperature Yesterday

Maximum temperature yesterday: 68 °F (at 3:20 pm)
Minimum temperature yesterday: 50 °F (at 5:50 am)
Average temperature yesterday: 59 °F

High & Low Weather Summary for the Past Weeks

 TemperatureHumidityPressure
High77 °F (Aug 10, 3:20 pm)100% (Aug 11, 11:50 pm)29.83 "Hg (Aug 11, 11:50 pm)
Low48 °F (Aug 15, 12:20 am)35% (Aug 18, 4:20 pm)29.24 "Hg (Aug 17, 4:20 pm)
Average59 °F75%29.58 "Hg
* Reported Aug 5 1:20 pm — Aug 20 1:50 pm, Molde. Weather by CustomWeather, © 2019

Note: Actual official high and low records may vary slightly from our data, if they occured in-between our weather recording intervals... More about our weather records

Advertising

Molde Weather History for the Previous 24 Hours

Scroll right to see more
 ConditionsComfort  
Time TempWeatherWind HumidityBarometerVisibility
1:50 pm
Tue, Aug 20
61 °FScattered showers. Partly sunny.12 mph68%29.77 "HgN/A
1:20 pm59 °FScattered showers. Partly sunny.8 mph77%29.74 "HgN/A
12:50 pm59 °FSprinkles. Partly sunny.10 mph72%29.74 "HgN/A
12:20 pm59 °FSprinkles. Partly sunny.18 mph72%29.74 "HgN/A
11:50 am59 °FPartly sunny.10 mph72%29.71 "HgN/A
11:20 am59 °FScattered showers. Partly sunny.7 mph77%29.71 "HgN/A
10:50 am59 °FSprinkles. Partly sunny.5 mph72%29.71 "HgN/A
10:20 am59 °FSprinkles. Partly sunny.3 mph72%29.71 "HgN/A
9:20 am59 °FScattered showers. Partly sunny.3 mph77%29.68 "HgN/A
8:50 am57 °FSprinkles. Partly sunny.8 mph77%29.68 "HgN/A
7:50 am57 °FSprinkles. Partly sunny.14 mph77%29.65 "HgN/A
7:20 am57 °FSprinkles. Partly sunny.12 mph77%29.65 "HgN/A
6:50 am57 °FScattered showers. Partly sunny.10 mph72%29.65 "HgN/A
6:20 am57 °FSprinkles. Partly sunny.14 mph72%29.62 "HgN/A
5:50 am57 °FSprinkles. Partly sunny.12 mph72%29.62 "HgN/A
5:20 am57 °FSprinkles. Overcast.5 mph72%29.62 "HgN/A
4:50 am57 °FOvercast.7 mph72%29.62 "HgN/A
4:20 am57 °FSprinkles. Overcast.8 mph72%29.59 "HgN/A
3:20 am57 °FOvercast.10 mph72%29.59 "HgN/A
2:50 am57 °FMostly cloudy.10 mph72%29.59 "HgN/A
2:20 am57 °FPassing clouds.9 mph77%29.59 "HgN/A
1:50 am57 °FSprinkles. Overcast.10 mph77%29.59 "HgN/A
1:20 am55 °FOvercast.3 mph88%29.56 "HgN/A
12:50 am57 °FMostly cloudy.6 mph82%29.56 "HgN/A
12:20 am57 °FOvercast.12 mph82%29.56 "HgN/A
11:50 pm
Mon, Aug 19
57 °FOvercast.2 mph82%29.56 "HgN/A
11:20 pm57 °FOvercast.2 mph82%29.56 "HgN/A
10:20 pm57 °FSprinkles. Passing clouds.3 mph82%29.53 "HgN/A
9:50 pm59 °FSprinkles. Passing clouds.3 mph72%29.53 "HgN/A
9:20 pm61 °FScattered showers. Broken clouds.3 mph63%29.50 "HgN/A
8:50 pm61 °FPartly sunny.5 mph63%29.50 "HgN/A
8:20 pm61 °FPartly sunny.7 mph59%29.50 "HgN/A
7:50 pm63 °FScattered clouds.7 mph59%29.50 "HgN/A
7:20 pm63 °FScattered clouds.8 mph64%29.50 "HgN/A
6:50 pm64 °FScattered showers. Broken clouds.10 mph56%29.50 "HgN/A
6:20 pm64 °FScattered showers. Broken clouds.10 mph56%29.47 "HgN/A
5:50 pm64 °FPartly sunny.9 mph56%29.47 "HgN/A
5:20 pm61 °FSprinkles. Partly sunny.15 mph63%29.47 "HgN/A
4:50 pm63 °FSprinkles. Partly sunny.13 mph59%29.47 "HgN/A
4:20 pm63 °FSprinkles. Partly sunny.8 mph64%29.47 "HgN/A
3:50 pm63 °FPartly sunny.8 mph68%29.45 "HgN/A
3:20 pm68 °FPartly sunny.7 mph49%29.45 "HgN/A
Weather by CustomWeather, © 2019

See weather overview